7 * 24
多渠道服务支持
COSMOS 1519是苏联(CIS)于1983年12月29日08:00发射的GLONASS导航卫星,属于格洛纳斯系统早期试验组网卫星,该系统由苏联国防部主导研发,旨在打破美国GPS垄断,为全球军民用户提供独立导航服务,卫星采用三轴稳定设计,服役于中地球轨道,为后续格洛纳斯系统全球组网奠定了技术基础,是苏联冷战时期航天导航布局的重要组成部分。
俄罗斯(独联体)
(CIS)
| 数据来源 | 国际轨道数据 |
| 星历时间: | 2026-09-06T14:48:09+0800 5天前 查看轨道信息 |
| 半长轴: | 25508.264km |
| 偏心率: | 0.0011792 |
| 轨道倾角: | 66.385° |
| 近地点辐角 | 185.627° |
| 升交点赤经 | 326.485° |
| 平近点角 | 256.399° |
| 近地点: | 19100.047km |
| 远地点: | 19160.207km |
| 周期: | 675.742分钟 |
| 每日圈数: | 2.13099 |